Hors Challenge

Naturarun - La Hulpe (17.00 km)

dimanche 21 novembre 2021

Vous pouvez trouver Le classement original sur : https://my.raceresult.com
 
NATURARUN - LA HULPE
DISTANCE : 17.00 km
dimanche 21 novembre 2021
 
Place dos NOM Catégorie Pl/cat temps temps/km Vitesse
01:00:00              
1 1131 GUY VANLOMMEL SH 1 1:08:31 04:02 14.89
2 5681 GEOFFREY CRÉER SH 2 1:08:46 04:03 14.83
3 3245 THIBAUT ARQUIN SH 3 1:09:59 04:07 14.57
4 3270 PAUL ROGER SH 4 1:10:18 04:08 14.51
5 3227 JELLE VANOVERSCHELDE SH 5 1:10:52 04:10 14.39
6 3229 JORIS DE BLOCK SH 6 1:12:19 04:15 14.10
7 3242 ANGELO WILLE V2 1 1:12:56 04:17 13.99
8 1329 BART VAN HUMBEECK SH 7 1:13:22 04:19 13.90
9 5678 BENNY KERCKHOVEN V1 1 1:14:04 04:21 13.77
10 1363 ALEXANDER BREUGELMANS SH 8 1:14:09 04:22 13.76
11 3230 THOMAS CALLENS SH 9 1:14:15 04:22 13.74
12 3257 RICHARD HUIJBREGTS V1 2 1:14:56 04:24 13.61
13 3262 ALEXIS DONNET SH 10 1:15:22 04:26 13.53
14 1310 ARNOUT VERHAEGEN SH 11 1:15:32 04:27 13.50
15 1352 ROEL LAUWERS SH 12 1:16:29 04:30 13.34
16 3253 REM MANAGEMENT V1 3 1:18:51 04:38 12.94
17 3259 JEROEN DANCKERS V1 4 1:19:47 04:42 12.78
18 1336 CEDRIC DEWEVER SH 13 1:20:07 04:43 12.73
19 397 ROBIN LAURENT SH 14 1:20:22 04:44 12.69
20 1493 WARD VAN DE WYGAART SH 15 1:20:42 04:45 12.64
21 1494 ARNE HOUBEN SH 16 1:20:43 04:45 12.64
22 5677 RAF KERCKHOVEN SH 17 1:20:55 04:46 12.61
23 3231 XAVIER CARNOY V1 5 1:21:25 04:47 12.53
24 1259 CHRISTOPHE DE RUYVER SH 18 1:21:34 04:48 12.51
25 1052 SOFIE VAN DE PONSEELE A1 1 1:22:03 04:50 12.43
26 3215 XING LIU SD 1 1:22:47 04:52 12.32
27 3226 HANS MEUL SH 19 1:22:54 04:53 12.30
28 3240 JEAN-FRANÇOIS MENU V2 2 1:23:28 04:55 12.22
29 1463 JEAN DEJONCKHEERE SH 20 1:23:34 04:55 12.21
30 3254 CHARLES RENOIRTE V1 6 1:23:43 04:55 12.18
31 1167 PIERRE DELCOUR SH 21 1:23:48 04:56 12.17
32 3222 GUILLAUME PARELLO SH 22 1:23:49 04:56 12.17
33 1148 MATHIJS RESOORT V1 7 1:23:59 04:56 12.15
34 1476 YURII UHLANOV SH 23 1:24:03 04:57 12.14
35 1484 JULIEN BEYENS SH 24 1:24:33 04:58 12.06
36 3244 ANNABELLE ARQUIN SD 2 1:24:37 04:59 12.05
37 335 RONNY HOFENBOOM V2 3 1:24:41 04:59 12.04
38 414 JURGEN BUYENS V1 8 1:24:55 05:00 12.01
39 1375 EVA CARBALLEIRA A1 2 1:25:32 05:02 11.93
40 1118 LAURENT PREUD'HOMME SH 25 1:25:39 05:02 11.91
41 1041 GILLES VAN OVERSCHELDE SH 26 1:25:47 05:03 11.89
42 1407 BART DE MAERSCHALCK V1 9 1:26:01 05:04 11.86
43 1022 RIIKKA VREESWIJK-KELJA A2 1 1:26:19 05:05 11.82
44 1346 WANNES SPEELMANS SH 27 1:27:37 05:09 11.64
45 1343 PASCAL KNAPEN SH 28 1:27:38 05:09 11.64
46 10 MAARTEN CHRISTIAENS SH 29 1:27:45 05:10 11.62
47 1138 JULES DEJONCKHEERE SH 30 1:27:55 05:10 11.60
48 1036 GREGORY HULLAERT SH 31 1:28:29 05:12 11.53
49 3273 JULIEN DE VISSCHER SH 32 1:29:44 05:17 11.37
50 5699 PAWEL GOLSZTAJN V1 10 1:29:47 05:17 11.36
51 1467 STÉPHANE BROSET SH 33 1:29:47 05:17 11.36
52 1392 PATINY KENNY SH 34 1:29:48 05:17 11.36
53 1441 CLAUDE LONDOT V3 1 1:30:09 05:18 11.31
54 1440 ZAINA SEMLALI A2 2 1:30:09 05:18 11.31
55 1272 GUILLAUME DEWULF SH 35 1:30:19 05:19 11.29
56 3212 MICHEL VAN LIERDE SH 36 1:30:22 05:19 11.29
57 1306 BRUNO GOFFINET V2 4 1:30:32 05:20 11.27
58 1368 YVES DE CLERCK V2 5 1:30:34 05:20 11.26
59 18 STEF VAN PETEGHEM SH 37 1:30:54 05:21 11.22
60 1146 NICO VAN LANDEGHEM SH 38 1:30:54 05:21 11.22
61 1366 LAURENCE DECEUNINCK A1 3 1:31:05 05:21 11.20
62 1313 LOREEN RAYMAEKERS SD 3 1:31:11 05:22 11.19
63 1450 JEAN-LUC THAYSE V1 11 1:31:21 05:22 11.17
64 1367 ALEXANDRE DECEUNINCK V1 12 1:31:25 05:23 11.16
65 3277 PIERRE-LOUIS LOISE SH 39 1:32:04 05:25 11.08
66 5704 MICHEL GILLAIN V2 6 1:32:08 05:25 11.07
67 1005 ELKE MARKEY SD 4 1:32:21 05:26 11.04
68 1320 ANTOINE FAURE V1 13 1:32:35 05:27 11.02
69 1319 MARIE-LAURE SYBILLAIN SD 5 1:32:35 05:27 11.02
70 1321 GEORG ROEBLING V2 7 1:32:37 05:27 11.01
71 1353 AMINE LALAOUI SH 40 1:32:59 05:28 10.97
72 3291 AURÉLIEN SAVOINI SH 41 1:33:15 05:29 10.94
73 1458 OLIVIER GODFROID SH 42 1:33:19 05:29 10.93
74 1229 STEFAAN DE SMEDT SH 43 1:33:31 05:30 10.91
75 3272 THIBAULT ROEYKENS SH 44 0:0.065 00:00 941538.46
76 1074 YVON DONIS V2 8 1:33:54 05:31 10.86
77 1079 PHILIPPE TOUSSAINT V1 14 1:33:55 05:31 10.86
78 1004 JONAS VEYS SH 45 1:34:01 05:32 10.85
79 235 CHRISTOPHE VERNEIRT V2 9 1:34:18 05:33 10.82
80 1014 FRANCOIS PISCAGLIA V1 15 1:34:30 05:34 10.79
81 1297 MATHIEU NASLIN SH 46 1:34:40 05:34 10.77
82 3275 DENIS BOSMAN SH 47 1:34:54 05:35 10.75
83 1479 PAOLA THELLUNG DE COURTELARY SD 6 1:35:30 05:37 10.68
84 1150 ANNE-SOPHIE DARVILLE SD 7 1:35:42 05:38 10.66
85 1053 KRIS MERTENS V1 16 1:35:57 05:39 10.63
86 1315 MARIE SILVERT SD 8 1:36:00 05:39 10.63
87 3204 DIETER VANDERFAEILLIE V1 17 1:36:03 05:39 10.62
88 589 LIES HAUTEKEETE SD 9 1:36:03 05:39 10.62
89 1227 ROEL WAUTERS SH 48 1:36:05 05:39 10.62
90 3249 YVES DE GREEF V1 18 1:36:17 05:40 10.59
91 3248 BENOIT HERMANT V1 19 1:36:29 05:41 10.57
92 5695 JORGEN STAELENS SH 49 1:36:35 05:41 10.56
93 1342 JAN VANBUEL SH 50 1:37:22 05:44 10.48
94 1344 NIELS CLAEYS SH 51 1:37:24 05:44 10.47
95 1347 JELLE DE VLEMINCK SH 52 1:37:24 05:44 10.47
96 1256 HARALD ROGIERS V1 20 1:37:36 05:44 10.45
97 3269 GERRIT VANDEN WAEYENBERGH V1 21 1:37:36 05:44 10.45
98 1054 GUILLAUD MAGALI A1 4 1:38:01 05:46 10.41
99 1067 THOMAS SNOECKX V1 22 1:38:16 05:47 10.38
100 3271 OLIVIER VAN HOECK SH 53 1:38:17 05:47 10.38
101 1163 HERVÉ AUQUIER V2 10 1:38:23 05:47 10.37
102 1188 QUENTIN STRUYF SH 54 1:38:25 05:47 10.36
103 1462 KRISTOF STROOBANTS SH 55 1:38:29 05:48 10.36
104 1214 PETER ROELS V2 11 1:38:41 05:48 10.34
105 3274 LOUIS COLLINET SH 56 1:38:50 05:49 10.32
106 1497 SANDER RAMIOUL SH 57 1:38:53 05:49 10.32
107 1357 SIMON-DAVID DUMOULIN SH 58 1:39:00 05:49 10.30
108 3255 PATRICIA NELIS A2 3 1:39:12 05:50 10.28
109 1472 CÉCILE KREMER A1 5 1:39:27 05:51 10.26
110 1060 FRAN CAAMANO V1 23 1:39:28 05:51 10.25
111 1002 JUAN CRUZ GONZÁLEZ V1 24 1:39:29 05:51 10.25
112 3263 RODRIGO ALONSO V1 25 1:39:30 05:51 10.25
113 1327 LAURENT VAN DURME V1 26 1:39:31 05:51 10.25
114 556 NICOLE DILISSEN SD 10 1:39:35 05:51 10.24
115 3246 STÉPHANIE BUSSCHAERT SD 11 1:39:39 05:52 10.24
116 1213 ELÉNA DE LA SERNA SD 12 1:40:31 05:55 10.15
117 3239 KOEN MICHIELS SH 59 1:40:33 05:55 10.14
118 266 NATHALIE WINAND A2 4 1:40:35 05:55 10.14
119 265 BIE SCHOOLMEESTERS A2 5 1:40:35 05:55 10.14
120 3287 DANIELE LIN A1 6 1:40:40 05:55 10.13
121 1384 KOEN GHELDOF V2 12 1:40:56 05:56 10.11
122 1390 VEERLE HUYSENTRUYT A2 6 1:40:57 05:56 10.10
123 3260 NOEMIE DE CROMBRUGGHE SD 13 1:41:37 05:59 10.04
124 1416 CONNIE VAN DEN BERGH A2 7 1:41:53 06:00 10.01
125 1166 CEDRIC MARCHAND V1 27 1:42:30 06:02 9.95
126 1307 MIEKE TRUYENS A2 8 1:42:48 06:03 9.92
127 1045 INE ROELS A1 7 1:42:59 06:03 9.90
128 1469 ISABELLE ARNOULD SD 14 1:43:03 06:04 9.90
129 1465 ARIANE PONCHAU A1 8 1:43:10 06:04 9.89
130 3282 NATHAN LABYE SH 60 1:43:15 06:04 9.88
131 3235 ERWIN VANDENPUTTE V1 28 1:43:42 06:06 9.84
132 3219 HÉLOÏSE TROUCHE SD 15 1:43:54 06:07 9.82
133 1394 LISA LARA MUNOZ SD 16 1:44:19 06:08 9.78
134 1339 FRANK VAN CROMBRUGGEN V1 29 1:44:20 06:08 9.78
135 517 BART VANSTAEN SH 61 1:44:26 06:09 9.77
136 3236 CHRISTOPHE VAN MOLLEKOT V1 30 1:44:34 06:09 9.75
137 1134 ULRIKE NUSCHELER A2 9 1:44:52 06:10 9.73
138 1303 GERT SOUVERIJNS SH 62 1:45:03 06:11 9.71
139 3218 RUBEN VANDAMME SH 63 1:45:05 06:11 9.71
140 515 HANS TERSAGO SH 64 1:45:11 06:11 9.70
141 3210 JEAN-FRANÇOIS BEGUIN V1 31 1:45:54 06:14 9.63
142 3211 THOMAS MARCHAL SH 65 1:45:55 06:14 9.63
143 5705 GEERT DE PAEPE V2 13 1:46:16 06:15 9.60
144 1127 INGRID KOUBE A1 9 1:46:43 06:17 9.56
145 1050 ROOSMARIJN STEEMAN A1 10 1:46:50 06:17 9.55
146 1252 GAËLLE VAN DER BEKEN SD 17 1:46:57 06:17 9.54
147 1251 STEPHANIE VANLIER A1 11 1:46:57 06:17 9.54
148 1078 JÉRÉMY HENIN SH 66 1:47:04 06:18 9.53
149 3267 ETIENNE MEURANT V2 14 1:47:12 06:18 9.51
150 1183 NELE PHILIPS A1 12 1:47:31 06:19 9.49
151 1208 INA DESCHOUWER A2 10 1:47:32 06:20 9.49
152 1203 AMBER PIL SD 18 1:47:37 06:20 9.48
153 1408 RUDY MANTELS V1 32 1:47:39 06:20 9.48
154 1417 BRAM ROTTIERS SH 67 1:47:39 06:20 9.48
155 3220 CORALIE TROUCHE SD 19 1:47:42 06:20 9.47
156 1298 DIRK VAN DIJCK V2 15 1:47:52 06:21 9.46
157 1282 SOPHIE DANIELS A1 13 1:48:37 06:23 9.39
158 3237 VALÉRIE LEYSSENS A1 14 1:48:37 06:23 9.39
159 1098 LAURENCE MICHEL A1 15 1:48:53 06:24 9.37
160 1228 AUDE JAQUEMET SD 20 1:49:12 06:25 9.34
161 1204 EMIEL DEPROST SH 68 1:49:28 06:26 9.32
162 1096 FREDERIC BASYN V1 33 1:49:30 06:26 9.32
163 3234 NIKOLETT GAGYI SD 21 1:50:38 06:30 9.22
164 1345 JESSY VOLDERS SD 22 1:50:43 06:31 9.21
165 3266 JULIE MUYLDERMANS A1 16 01:51:36 06:34 9.14
166 1267 MORGANE DE GRATIE SD 23 01:51:47 06:35 9.12
167 1268 THIBAUT BRUGMA SH 69 01:51:47 06:35 9.12
168 1308 SANDRINE VANDENDAELE A2 11 01:52:23 06:37 9.08
169 1116 OLIVIER TJON V2 16 01:53:18 06:40 9.00
170 1001 JEAN NESLANY V3 2 01:53:48 06:42 8.96
171 3250 LAETITIA DE LANTSHEERE A1 17 01:53:53 06:42 8.96
172 3251 ASTRID DELOUVROY A1 18 01:53:53 06:42 8.96
173 1400 DIANA SZIKSZAI SD 24 01:54:40 06:45 8.90
174 1089 ADRIEN BURTON SH 70 01:55:07 06:46 8.86
175 1109 JENS VAN WYNSBERGE SH 71 01:55:25 06:47 8.84
176 1080 THÉODORA STAMOS A2 12 01:55:55 06:49 8.80
177 1419 LIEVEN ELST V3 3 01:56:50 06:52 8.73
178 1348 STÉPHANIE VAN DE PERRE A2 13 01:56:50 06:52 8.73
179 3286 BART PUT V1 34 01:57:18 06:54 8.70
180 3279 CHRIS SABBE V2 17 01:57:40 06:55 8.67
181 3233 KATALIN MOLNÁR SD 25 01:58:24 06:58 8.61
182 1015 SIMON LOUGHEED V1 35 01:58:26 06:58 8.61
183 5706 VEERLE DEPESTELE A1 19 01:58:48 06:59 8.59
184 1446 CATHERINE BERGER A1 20 01:58:52 07:00 8.58
185 1201 VIRGINIE TRANCHANT A1 21 01:58:53 07:00 8.58
186 3281 HARALD SPITZER V2 18 01:59:17 07:01 8.55
187 3264 AMÉLIE PRIEUR SD 26 01:59:49 07:03 8.51
188 3265 MATHILDE MOREAU SD 27 01:59:50 07:03 8.51
189 3280 GAEL KESENNE V1 36 01:59:55 07:03 8.51
190 3247 SHARLENE SEYS SD 28 02:00:09 07:04 8.49
191 1189 CATHERINE HOUBA A1 22 02:00:29 07:05 8.47
192 1185 GIORGIO FABINI V1 37 02:00:32 07:05 8.46
193 1046 HILDE DE WINTER A2 14 02:00:35 07:06 8.46
194 1242 GEERT SCHELSTRAETE SH 72 02:00:54 07:07 8.44
195 1234 BART VERBESSEM SH 73 02:01:00 07:07 8.43
196 1280 MAARTEN OSTE SH 74 02:01:06 07:07 8.42
197 1235 JULIE VAN DE VELDE SD 29 02:01:08 07:08 8.42
198 1095 OLIVIER HAUTFENNE V3 4 02:01:21 07:08 8.41
199 1026 JUSTINE NOLET SD 30 02:01:24 07:08 8.40
200 1027 VICTOIRE NOLET SD 31 02:01:24 07:08 8.40
201 1023 EVRARD NOLET SH 75 02:01:24 07:08 8.40
202 1025 JEAN-CHARLES NOLET SH 76 02:01:25 07:09 8.40
203 1024 GUILLAUME NOLET SH 77 02:01:27 07:09 8.40
204 1049 FLORIANE GILLIEAUX A1 23 02:01:50 07:10 8.37
205 1169 ALEXANDRE GIUDICE SH 78 02:02:39 07:13 8.32
206 1223 VÉRONIQUE VETS A2 15 02:05:03 07:21 8.16
207 1081 ALICE DELVILLE A2 16 02:06:27 07:26 8.07
208 1200 VANESSA ROMANUS A1 24 02:08:59 07:35 7.91
209 1202 KATRIEN VANDEGAER SD 32 02:09:10 07:36 7.90
               
Nos dernières videos